Weather in Az'yal

Russia / Mari El Republic     56°24′01″N   48°54′39″E
temp.,
°C
wind,
m/s
gust,
m/s
humid.,
%
clouds,
%
prec.,
mm/h
press.,
hPa
HPBL,
m
25 february, thu
thu2500:00−25wnw119688 0.0 103420
03:00−26ssw129766 0.0 103319
06:00−24s2497100 0.0 1031108
09:00−21sse4894100 0.0 1028258
12:00−18sse5989100 0.0 1025378
15:00−17sse61194100 0.4 1022494
18:00−17sse51195100 0.8 1020589
21:00−17sse51095100 1.3 1019512
26 february, fri
fri2600:00−17sse4995100 0.4 1017479
03:00−16sse4995100 0.9 1017486
06:00−17se4895100 0.3 1015391
09:00−15se4893100 0.4 1015396
12:00−12se5891100 0.2 1012480
15:00−11se51092100 0.3 1010490
18:00−11se61294100 0.6 1005492
21:00−9se71494100 2.9 1000518
27 february, sat
sat2700:00−8se61295100 5.3 995495
03:00−7ese3596100 8.5 994190
06:00−6ne2297100 2.4 99278
09:00−6ne2396100 3.4 993155
12:00−6ne3595100 0.6 994301
15:00−8nne4794100 1.3 996400
18:00−10n4994100 0.8 997471
21:00−12nne51092100 1.0 1000422
28 february, sun
sun2800:00−15n41093100 0.1 1001381
03:00−17n41094100 0.1 1004334
06:00−20n4109474 0.0 1006289
09:00−19n489369 0.0 1007321
12:00−16n489171 0.0 1009423
15:00−15n599184 0.0 1011530
18:00−16n41094100 0.0 1013414
21:00−18n3109598 0.1 1016302
1 march, mon
mon100:00−20n379761 0.0 1017169
03:00−22nnw379731 0.0 1019151
06:00−23n36970 0.0 1021116
09:00−18n36940 0.0 1022244
12:00−14nnw248920 0.0 1023324
15:00−12nw349132 0.0 1022355
18:00−17w239620 0.0 102120
21:00−15sw389760 0.0 1020186